Location: Zagreb
(45.8000°N, 16.0000°E)
Time: 21:04:23
(UTC+01:00)

deb Explorer IX - Pass Details

Date: 03 October 2020
Orbit: 537 x 1106 km, 38.8° (Epoch: 30 October)

Event Time Altitude Azimuth Distance (km) Brightness Sun altitude
Rises 20:30:13 0° 266° (W) 2,968 ? -21.3°
Reaches altitude 10° 20:33:08 10° 250° (WSW) 1,967 ? -21.8°
Maximum altitude 20:36:28 21° 202° (SSW) 1,320 ? -22.3°
Enters shadow 20:37:00 20° 191° (S) 1,328 ? -22.4°
Drops below altitude 10° 20:39:36 10° 152° (SSE) 1,821 - -22.9°
Sets 20:42:11 0° 135° (SE) 2,681 - -23.3°
